Погода в Чихачеве

Россия / Псковская область     57°17′08″N   29°54′14″E
темп.,
°C
ветер,
м/с
пор.,
м/с
влажн.,
%
обл.,
%
осадки,
мм/ч
давл.,
гПа
погр.,
м
18 апреля, вс
вс1800:00+8св3117978 0.0 1024336
03:00+6св3107888 0.0 1024241
06:00+5св3107937 0.0 1024264
09:00+9всв48612 0.0 1025468
12:00+13св57470 0.0 10241260
15:00+14всв57395 0.0 10241807
18:00+13всв47455 0.0 10241910
21:00+9св4126143 0.0 1025389
19 апреля, пн
пн1900:00+6всв310705 0.0 1026319
03:00+5св39805 0.0 1027259
06:00+3св38905 0.0 1026225
09:00+7всв467344 0.0 1027563
12:00+11всв455661 0.0 10261393
15:00+11всв4556100 0.0 10261637
18:00+9всв476797 0.0 1026730
21:00+7в3873100 0.0 1026512
20 апреля, вт
вт2000:00+6всв2774100 0.0 1025304
03:00+6всв2772100 0.0 1024281
06:00+5всв2776100 0.0 1023319
09:00+7в356898 0.1 1022903
12:00+8всв355299 0.1 10201616
15:00+10всв4541100 0.1 10191923
18:00+7в467199 0.1 1017978
21:00+4всв368286 0.1 1017268
21 апреля, ср
ср2100:00+2св258887 0.0 1015157
03:00+3с2587100 0.0 1011335
06:00+3ссз3792100 0.0 1008485
09:00+3ссз4896100 0.1 1006784
12:00+3ссз3697100 2.7 1004639
15:00+3зсз2698100 4.9 1004453
18:00+3з3898100 1.1 1004747
21:00+4з3998100 1.8 1006749
22 апреля, чт
чт2200:00+4зюз2898100 0.3 1007477
03:00+3зюз2797100 0.3 1009204
06:00+2юз269674 0.0 1010159
09:00+6зюз25755 0.0 1012355
12:00+11зюз345353 0.0 10141519
15:00+12ююз2446100 0.0 10141723
18:00+12юв245410 0.0 1014939
21:00+7вюв3108257 0.0 1015182